sat.trackr.live / text

‹ back to catalog

2025-274B

NORAD 66651 · 2025-274B

PAYLOAD ACTIVE UNKNOWN

§ Identity

Operator
Country
SKOR
Launch date
2025-11-26
Launch site
NSC
Launch vehicle
Mass (kg)
RCS (m²)

External: N2YO · Heavens-Above · Gunter

§ Orbital elements

Epoch: 2026-09-20T14:19:15.229056Z

Period
96.41 min
Inclination
97.7475°
Eccentricity
0.0013057
Mean motion
14.93627051 rev/d
Perigee alt
577.5 km
Apogee alt
595.7 km
Semi-major
6,964.8 km
B*
1.5600e-4
RAAN
191.3341°
Arg perigee
40.5099°
Mean anomaly
319.7090°
Rev number
4,445

§ Raw data

2025-274B1 66651U 25274B   26263.59670404  .00001593  00000+0  15600-3 0  99902 66651  97.7475 191.3341 0013057  40.5099 319.7090 14.93627051 44454

JSON: /api/v1/satellites/66651 · /tle

For live sub-satellite position, see the globe view (requires WebGL).

§ Visibility from observer

Set your observer location to see the next 7 days of passes ≥ 10°. The values pass through the URL so the page stays shareable.

No JS? Fill the form by hand. The geolocation button needs JavaScript.

§ Radio — SatNOGS DB

ModeDescriptionDownlinkUplink
FM S-band telemetry 2.249 GHz

1 transmitter · refreshed weekly from db.satnogs.org